Terminal Aerodrome Forecast
Issued by NWS

Current Version | Previous Version | Graphics & Text | Print | Product List | Glossary On
Versions: 1 2 3 4 5 6 7 8 9 10 11 12 13 14 15 16 17 18 19 20 21 22 23 24 25 26 27 28 29 30 31 32 33 34 35
000
FTUS41 KRNK 010527
TAFLWB
TAF
KLWB 010527Z 0106/0206 00000KT 1/4SM FG VV001
      TEMPO 0107/0111 2SM BR SCT005
     FM011300 00000KT P6SM SCT060
     FM011800 29005KT P6SM VCSH BKN040=

USA.gov is the U.S. government's official web portal to all federal, state and local government web resources and services.